Hourly Weather Roundup
Issued by NWS Central Illinois

Home | Current Version | Previous Version | Graphics & Text | Print | Product List | Glossary On
Versions: 1 2 3 4 5 6 7 8 9 10 11 12 13 14 15 16 17 18 19 20 21 22 23 24 25 26 27 28 29 30 31 32 33 34 35 36 37 38 39 40 41 42 43 44 45 46 47 48 49 50
000
NZUS43 KILX 291710
HWRILX

AREA WEATHER ROUNDUP
NATIONAL WEATHER SERVICE, LINCOLN IL
1200 PM CDT SUN MAR 29 2015


CITY           SKY/WX    TMP DP  RH WIND       PRES   REMARKS
BLOOMINGTON    CLOUDY    38  32  79 S29G36    29.95F WCI  26
CHAMPAIGN      LGT RAIN  38  27  64 S22       30.05F WCI  27
DECATUR        CLOUDY    40  28  62 S20       30.04F WCI  30
EFFINGHAM      PTSUNNY   46  16  30 SE17G25   30.13F
FLORA          SUNNY     47  25  41 S22G28    30.17F
GALESBURG      CLOUDY    34  30  85 S13       29.94F WCI  25
JACKSONVILLE   CLOUDY    46  26  46 S23G31    29.96F
LACON          CLOUDY    35  28  75 S12       29.97R WCI  27
LAWRENCEVILLE  SUNNY     49  24  37 S22G29    30.21F
LITCHFIELD     CLOUDY    44  28  52 S29G37    30.04F WCI  34
$$


CITY           SKY/WX    TMP DP  RH WIND       PRES   REMARKS
LINCOLN        CLOUDY    40  29  64 S25G33    29.99F WCI  29
MACOMB         CLOUDY    42  34  74 SW17G23   29.98F WCI  34
MATTOON        PTSUNNY   43  21  41 S22G33    30.09F WCI  34
MT CARMEL AP   SUNNY     50  23  34 S18       30.20F
OLNEY-NOBLE AP SUNNY     46  27  46 S17G28    30.18F
PARIS          CLOUDY    41  28  58 S18G25    30.13F WCI  33
PEORIA         CLOUDY    37  28  70 S22G29    29.98R WCI  26
PONTIAC        MIX PCPN  35  31  83 S24G35    29.95F WCI  23
RANTOUL        RAIN      38  29  69 S20G25    30.05F WCI  29
ROBINSON       SUNNY     47  25  42 S20G28    30.20F
SPRINGFIELD    CLOUDY    42  26  53 S25G37    29.98F WCI  32
TAYLORVILLE    CLOUDY    43  28  56 S25G32    30.02F WCI  33
$$

...REGIONAL REPORTS...


CITY           SKY/WX    TMP DP  RH WIND       PRES   REMARKS
CHICAGO O`HARE LGT RAIN  34  26  72 S24G32    29.92F WCI  21
KANKAKEE       RAIN      36  28  73 S17G24    30.01F WCI  26
MOLINE         PTSUNNY   38  31  76 SW18G32   29.89F WCI  28
MOUNT VERNON   SUNNY     52  25  35 S17G23    30.16F
PITTSFIELD     CLOUDY    47  30  52 S17G24    29.98S
QUINCY         MOSUNNY   50  31  48 SW17G25   29.96S
ROCKFORD       LGT RAIN  33  27  78 S23G32    29.91F WCI  21
$$


CITY           SKY/WX    TMP DP  RH WIND       PRES   REMARKS
BURLINGTON     CLOUDY    41  33  73 SW17G26   29.91F WCI  32
CEDAR RAPIDS   CLOUDY    44  40  85 SW21G29   29.82F
DES MOINES     MOSUNNY   57  40  52 W24G36    29.87S
KIRKSVILLE     LGT RAIN  48  37  65 SW15G28   29.95F
OTTUMWA        CLOUDY    51  40  65 SW20G25   29.87F
ST LOUIS       PTSUNNY   55  25  31 S14G29    30.06F
$$


CITY           SKY/WX    TMP DP  RH WIND       PRES   REMARKS
TERRE HAUTE    MOSUNNY   44  22  41 S23G32    30.16F
EVANSVILLE     SUNNY     50  21  32 S15G24    30.25F
INDIANAPOLIS   PTSUNNY   46  15  28 S16G24    30.15F
LAFAYETTE      PTSUNNY   42  14  32 S18G33    30.11F WCI  34
MADISON        CLOUDY    34  29  82 S17G28    29.79F WCI  23
MILWAUKEE      LGT SNOW  35  26  69 S26G35    29.83F WCI  22
$$




USA.gov is the U.S. government's official web portal to all federal, state and local government web resources and services.